This demonstration page uses our WeatherBlox Daily Observations layout. Learn more.

Left ArrowRight Arrow

38.20091, -84.87328

Hourly Observations for July 6, 2017

Temp ( °F °C ) Dew Point ( °F °C ) Humidity (%) Winds ( mph kmh ) Pressure ( in mb ) Visibility ( mi km ) Precip ( " mm )
12:53 am 00:53 Clear 74 23.3 70 21.1 88 88 Calm 30.05 1018 10 16 0.00 0.00
1:53 am 01:53 Clear 73 22.8 70 21.1 90 90 S 3 6 30.04 1017 10 16 0.00 0.00
2:53 am 02:53 Mostly Cloudy 73 22.8 69 20.6 87 87 SE 5 7 30.02 1017 9 14 0.00 0.00
3:53 am 03:53 Partly Cloudy with Light Rain 72 22.2 69 20.6 91 91 SSE 3 6 30.01 1016 9 14 0.00 0.03
4:53 am 04:53 Mostly Cloudy 72 22.2 69 20.6 91 91 SSE 3 6 29.99 1016 10 16 0.01 0.25
5:53 am 05:53 Cloudy with Light Rain 72 22.2 69 20.6 91 91 S 3 6 30.01 1016 5 8 0.02 0.51
6:05 am 06:05 Cloudy with Rain 72 22.2 69 20.6 91 91 SSW 7 11 30.00 1016 3 4 0.06 1.52
6:08 am 06:08 Cloudy with Heavy Rain 72 22.2 69 20.6 91 91 SSW 3 6 30.00 1016 2 2 0.14 3.56
6:19 am 06:19 Cloudy with Light Rain 72 22.2 69 20.6 91 91 SSE 6 9 30.00 1016 4 6 0.17 4.32
6:28 am 06:28 Mostly Cloudy with Light Rain 72 22.2 69 20.6 91 91 SSE 7 11 30.00 1016 8 13 0.17 4.32
6:53 am 06:53 Mostly Cloudy with Light Rain 72 22.2 69 20.6 91 91 SE 7 11 30.00 1016 9 14 0.18 4.57
7:23 am 07:23 Cloudy 73 22.8 69 20.6 87 87 SSW 13 20 30.00 1016 10 16 0.00 0.03
7:53 am 07:53 Mostly Cloudy 72 22.2 68 20 87 87 SW 10 17 30.01 1016 10 16 0.00 0.03
8:36 am 08:36 Cloudy with Light Rain 72 22.2 68 20 87 87 SW 7 11 30.00 1016 9 14 0.01 0.25
8:53 am 08:53 Cloudy 72 22.2 69 20.6 91 91 WSW 8 13 30.02 1017 10 16 0.01 0.25
9:53 am 09:53 Cloudy 74 23.3 69 20.6 85 85 WSW 3 6 30.02 1017 10 16 0.00 0.00
10:40 am 10:40 Cloudy 76 24.4 70 21.1 82 82 VRB 6 9 30.00 1016 10 16 0.00 0.00
10:51 am 10:51 Mostly Cloudy 79 26 72 22 79 79 W 7 11 30.00 1016 10 16 0.00 0.00
10:53 am 10:53 Mostly Cloudy 77 25 71 21.7 82 82 WSW 7 11 30.02 1017 10 16 0.00 0.00
11:49 am 11:49 Cloudy 75 24 72 22 89 89 SSW 8 13 30.00 1016 10 16 0.00 0.00
11:53 am 11:53 Cloudy 77 25 71 21.7 82 82 SW 8 13 30.01 1016 10 16 0.00 0.00
12:53 pm 12:53 Cloudy 79 26.1 71 21.7 77 77 VRB 7 11 30.00 1016 10 16 0.00 0.03
1:07 pm 13:07 Cloudy with Nearby Thunderstorms 78 25.6 70 21.1 76 76 SW 9 15 30.00 1016 10 16 0.00 0.00
1:21 pm 13:21 Cloudy with Nearby Thunderstorms 77 25 70 21.1 79 79 SW 10 17 30.00 1016 4 6 0.03 0.76
1:24 pm 13:24 Cloudy with Nearby Thunderstorms 76 24.4 71 21.7 85 85 SW 14 22 30.00 1016 1 2 0.12 3.05
1:26 pm 13:26 Cloudy with Nearby Thunderstorms 75 23.9 70 21.1 84 84 SW 12 19 30.00 1016 1 1 0.21 5.33
1:36 pm 13:36 Cloudy with Heavy Rain 73 22.8 70 21.1 90 90 VRB 6 9 30.00 1016 1 1 0.33 8.38
1:39 pm 13:39 Cloudy with Rain 73 22.8 70 21.1 90 90 W 5 7 30.00 1016 1 2 0.34 8.64
1:53 pm 13:53 Cloudy with Light Rain 73 22.8 70 21.1 90 90 Calm 29.98 1015 4 6 0.38 9.65
2:10 pm 14:10 Cloudy with Nearby Thunderstorms 73 22.8 70 21.1 90 90 Calm 29.97 1015 3 4 0.03 0.76
2:27 pm 14:27 Cloudy with Thunderstorms 73 22.8 70 21.1 90 90 Calm 29.97 1015 2 3 0.08 2.03
2:45 pm 14:45 Cloudy with Nearby Thunderstorms 73 22.8 70 21.1 90 90 NW 3 6 29.97 1015 2 2 0.15 3.81
2:51 pm 14:51 Cloudy with Nearby Thunderstorms 73 23 70 21 89 89 NNW 5 7 29.97 1015 2 3 0.16 4.06
2:53 pm 14:53 Cloudy with Nearby Thunderstorms 73 22.8 70 21.1 90 90 NNW 5 7 29.98 1015 3 4 0.17 4.32
3:00 pm 15:00 Cloudy with Light Rain 73 22.8 70 21.1 90 90 NNW 5 7 29.97 1015 4 6 0.01 0.25
3:09 pm 15:09 Cloudy with Light Rain 74 23.3 70 21.1 88 88 NNW 3 6 29.97 1015 3 5 0.02 0.51
3:44 pm 15:44 Cloudy 75 23.9 71 21.7 88 88 Calm 29.94 1014 10 16 0.02 0.51
3:53 pm 15:53 Cloudy 75 23.9 71 21.7 88 88 Calm 29.96 1015 10 16 0.02 0.51
4:34 pm 16:34 Cloudy with Light Rain 75 23.9 70 21.1 84 84 Calm 29.94 1014 10 16 0.01 0.25
4:53 pm 16:53 Cloudy with Light Rain 75 23.9 71 21.7 88 88 ENE 3 6 29.93 1014 6 10 0.02 0.51
5:06 pm 17:06 Cloudy with Light Rain 75 23.9 71 21.7 88 88 N 3 6 29.91 1013 6 10 0.00 0.03
5:14 pm 17:14 Cloudy with Light Rain 75 23.9 71 21.7 88 88 Calm 29.91 1013 9 14 0.01 0.25
5:22 pm 17:22 Cloudy with Light Rain 75 23.9 71 21.7 88 88 Calm 29.91 1013 9 14 0.01 0.25
5:40 pm 17:40 Cloudy 75 23.9 71 21.7 88 88 Calm 29.91 1013 8 13 0.01 0.25
5:53 pm 17:53 Cloudy 75 23.9 72 22.2 90 90 W 3 6 29.92 1013 10 16 0.01 0.25
6:12 pm 18:12 Cloudy 76 24.4 69 20.6 79 79 WNW 3 6 29.91 1013 10 16 0.00 0.00
6:22 pm 18:22 Cloudy 76 24.4 71 21.7 85 85 WSW 5 7 29.94 1014 10 16 0.00 0.00
6:34 pm 18:34 Cloudy 75 23.9 71 21.7 88 88 SW 5 7 29.94 1014 10 16 0.00 0.00
6:53 pm 18:53 Mostly Cloudy 76 24.4 70 21.1 82 82 SW 6 9 29.94 1014 10 16 0.00 0.00
7:33 pm 19:33 Mostly Cloudy 76 24.4 70 21.1 82 82 SW 5 7 29.94 1014 10 16 0.00 0.00
7:53 pm 19:53 Mostly Cloudy 76 24.4 70 21.1 82 82 Calm 29.95 1014 10 16 0.00 0.00
8:20 pm 20:20 Mostly Cloudy 75 23.9 71 21.7 88 88 WSW 3 6 29.94 1014 10 16 0.00 0.00
8:53 pm 20:53 Cloudy with Light Rain 75 23.9 71 21.7 88 88 Calm 29.95 1014 3 5 0.01 0.25
9:53 pm 21:53 Mostly Cloudy 73 22.8 70 21.1 90 90 NW 3 6 29.95 1014 8 13 0.02 0.51
9:57 pm 21:57 Mostly Cloudy with Light Rain 73 22.8 70 21.1 90 90 NW 5 7 29.94 1014 7 11 0.00 0.03
10:22 pm 22:22 Mostly Cloudy with Mist and Fog 73 22.8 70 21.1 90 90 NW 3 6 29.97 1015 5 8 0.00 0.03
10:53 pm 22:53 Clear 72 22.2 69 20.6 91 91 Calm 29.97 1015 7 11 0.00 0.03
11:53 pm 23:53 Clear 70 21.1 67 19.4 90 90 SW 5 7 29.97 1015 10 16 0.00 0.00

Powered by AerisWeather